"Sample Date","Sample Time","Sample Value","Units","Flow Rate","Sample Interval","Number Channels","Micron Size 0","Counts/Channel 0","Micron Size 1","Counts/Channel 1","Micron Size 2","Counts/Channel 2","Micron Size 3","Counts/Channel 3","Micron Size 4","Counts/Channel 4","Micron Size 5","Counts/Channel 5","Micron Size 6","Counts/Channel 6","Micron Size 7","Counts/Channel 7","Micron Size 8","Counts/Channel 8","Micron Size 9","Counts/Channel 9","Micron Size 10","Counts/Channel 10","Micron Size 11","Counts/Channel 11","Micron Size 12","Counts/Channel 12","Micron Size 13","Counts/Channel 13","Micron Size 14","Counts/Channel 14","Micron Size 15","Counts/Channel 15","Micron Size 16","Counts/Channel 16","Micron Size 17","Counts/Channel 17","Micron Size 18","Counts/Channel 18","Micron Size 19","Counts/Channel 19","Micron Size 20","Counts/Channel 20","Micron Size 21","Counts/Channel 21","Micron Size 22","Counts/Channel 22","Micron Size 23","Counts/Channel 23","Micron Size 24","Counts/Channel 24","Micron Size 25","Counts/Channel 25","Micron Size 26","Counts/Channel 26","Micron Size 27","Counts/Channel 27","Micron Size 28","Counts/Channel 28","Micron Size 29","Counts/Channel 29","Micron Size 30","Counts/Channel 30","Micron Size 31","Counts/Channel 31"
"04/01/08","09:00:00",5558.000,"cc",28412.723,6.00,6,0.100,2906.000,0.200,854.000,0.300,710.000,0.500,816.000,1.000,272.000,5.000,0
"04/01/08","09:00:06",5582.000,"cc",28476.998,6.00,6,0.100,3011.000,0.200,821.000,0.300,720.000,0.500,735.000,1.000,295.000,5.000,0
"04/01/08","09:00:12",5475.000,"cc",28347.578,6.00,6,0.100,2962.000,0.200,822.000,0.300,703.000,0.500,729.000,1.000,259.000,5.000,0
"04/01/08","09:00:18",5466.000,"cc",28355.844,6.00,6,0.100,2899.000,0.200,844.000,0.300,703.000,0.500,722.000,1.000,298.000,5.000,0
"04/01/08","09:00:24",5442.000,"cc",28297.607,6.00,6,0.100,2953.000,0.200,762.000,0.300,653.000,0.500,780.000,1.000,294.000,5.000,0
"04/01/08","09:00:30",5595.000,"cc",28320.209,6.00,6,0.100,3143.000,0.200,770.000,0.300,644.000,0.500,746.000,1.000,292.000,5.000,0
"04/01/08","09:00:36",5655.000,"cc",28356.289,6.00,6,0.100,3088.000,0.200,800.000,0.300,669.000,0.500,797.000,1.000,301.000,5.000,0
"04/01/08","09:00:42",5543.000,"cc",28325.203,6.00,6,0.100,3041.000,0.200,836.000,0.300,620.000,0.500,784.000,1.000,262.000,5.000,0
"04/01/08","09:00:48",5531.000,"cc",28359.988,6.00,6,0.100,3038.000,0.200,813.000,0.300,673.000,0.500,721.000,1.000,286.000,5.000,0
"04/01/08","09:00:54",5623.000,"cc",28238.951,6.00,6,0.100,3001.000,0.200,880.000,0.300,683.000,0.500,789.000,1.000,270.000,5.000,0
"04/01/08","09:01:00",5607.000,"cc",28258.393,6.00,6,0.100,3052.000,0.200,850.000,0.300,681.000,0.500,753.000,1.000,271.000,5.000,0
"04/01/08","09:01:06",5494.000,"cc",28312.654,6.00,6,0.100,2949.000,0.200,795.000,0.300,689.000,0.500,772.000,1.000,289.000,5.000,0
"04/01/08","09:01:12",5758.000,"cc",28293.453,6.00,6,0.100,3139.000,0.200,867.000,0.300,674.000,0.500,791.000,1.000,287.000,5.000,0
"04/01/08","09:01:18",5621.000,"cc",28280.639,6.00,6,0.100,3021.000,0.200,859.000,0.300,663.000,0.500,804.000,1.000,274.000,5.000,0
"04/01/08","09:01:24",5458.000,"cc",28332.430,6.00,6,0.100,2929.000,0.200,851.000,0.300,686.000,0.500,724.000,1.000,268.000,5.000,0
"04/01/08","09:01:30",5422.000,"cc",28263.291,6.00,6,0.100,2920.000,0.200,818.000,0.300,669.000,0.500,717.000,1.000,298.000,5.000,0
"04/01/08","09:01:36",5486.000,"cc",28215.006,6.00,6,0.100,2943.000,0.200,817.000,0.300,679.000,0.500,749.000,1.000,298.000,5.000,0
"04/01/08","09:01:42",5505.000,"cc",28278.940,6.00,6,0.100,2926.000,0.200,879.000,0.300,647.000,0.500,759.000,1.000,294.000,5.000,0
"04/01/08","09:01:48",5877.000,"cc",28295.816,6.00,6,0.100,3124.000,0.200,920.000,0.300,740.000,0.500,801.000,1.000,292.000,5.000,0
"04/01/08","09:01:54",5962.000,"cc",28271.014,6.00,6,0.100,3134.000,0.200,940.000,0.300,768.000,0.500,799.000,1.000,321.000,5.000,0
"04/01/08","09:02:00",5515.000,"cc",28298.481,6.00,6,0.100,2915.000,0.200,849.000,0.300,668.000,0.500,767.000,1.000,316.000,5.000,0
"04/01/08","09:02:06",5905.000,"cc",28303.164,6.00,6,0.100,2978.000,0.200,942.000,0.300,804.000,0.500,865.000,1.000,316.000,5.000,0
"04/01/08","09:02:12",5812.000,"cc",28324.795,6.00,6,0.100,2969.000,0.200,933.000,0.300,735.000,0.500,885.000,1.000,290.000,5.000,0
"04/01/08","09:02:18",5325.000,"cc",28265.199,6.00,6,0.100,2824.000,0.200,826.000,0.300,658.000,0.500,736.000,1.000,281.000,5.000,0
"04/01/08","09:02:24",7196.000,"cc",28315.102,6.00,6,0.100,3735.000,0.200,1203.000,0.300,960.000,0.500,940.000,1.000,358.000,5.000,0
"04/01/08","09:02:30",8057.000,"cc",28264.391,6.00,6,0.100,4163.000,0.200,1391.000,0.300,1035.000,0.500,1072.000,1.000,395.000,5.000,1.000
"04/01/08","09:02:36",14933.000,"cc",28357.406,6.00,6,0.100,7824.000,0.200,3003.000,0.300,1992.000,0.500,1613.000,1.000,501.000,5.000,0
"04/01/08","09:02:42",21978.000,"cc",28350.268,6.00,6,0.100,11392.000,0.200,4464.000,0.300,2910.000,0.500,2458.000,1.000,754.000,5.000,0
"04/01/08","09:02:48",29616.000,"cc",28347.973,6.00,6,0.100,15230.000,0.200,6033.000,0.300,3968.000,0.500,3284.000,1.000,1101.000,5.000,0
"04/01/08","09:02:54",17931.000,"cc",28376.033,6.00,6,0.100,9483.000,0.200,3486.000,0.300,2302.000,0.500,1994.000,1.000,666.000,5.000,0
"04/01/08","09:03:00",9951.000,"cc",28334.213,6.00,6,0.100,5315.000,0.200,1745.000,0.300,1248.000,0.500,1202.000,1.000,441.000,5.000,0
"04/01/08","09:03:06",12270.000,"cc",28216.424,6.00,6,0.100,6297.000,0.200,2306.000,0.300,1632.000,0.500,1500.000,1.000,535.000,5.000,0
"04/01/08","09:03:12",17967.000,"cc",28298.262,6.00,6,0.100,9228.000,0.200,3315.000,0.300,2458.000,0.500,2173.000,1.000,793.000,5.000,0
"04/01/08","09:03:18",16441.000,"cc",28343.592,6.00,6,0.100,8118.000,0.200,3192.000,0.300,2276.000,0.500,2085.000,1.000,769.000,5.000,1.000
"04/01/08","09:03:24",11100.000,"cc",28290.486,6.00,6,0.100,6293.000,0.200,1865.000,0.300,1242.000,0.500,1263.000,1.000,437.000,5.000,0
"04/01/08","09:03:30",13295.000,"cc",28307.703,6.00,6,0.100,6958.000,0.200,2340.000,0.300,1690.000,0.500,1675.000,1.000,632.000,5.000,0
"04/01/08","09:03:36",8972.000,"cc",28397.875,6.00,6,0.100,5212.000,0.200,1340.000,0.300,1021.000,0.500,1020.000,1.000,379.000,5.000,0
"04/01/08","09:03:42",9134.000,"cc",28317.654,6.00,6,0.100,4630.000,0.200,1626.000,0.300,1209.000,0.500,1225.000,1.000,444.000,5.000,0
"04/01/08","09:03:48",12267.000,"cc",28345.641,6.00,6,0.100,6452.000,0.200,2091.000,0.300,1609.000,0.500,1524.000,1.000,591.000,5.000,0
"04/01/08","09:03:54",17057.000,"cc",28245.830,6.00,6,0.100,8561.000,0.200,3203.000,0.300,2379.000,0.500,2153.000,1.000,761.000,5.000,0
"04/01/08","09:04:00",22902.000,"cc",28275.023,6.00,6,0.100,14459.000,0.200,3571.000,0.300,2180.000,0.500,1961.000,1.000,731.000,5.000,0
"04/01/08","09:04:06",12831.000,"cc",28326.953,6.00,6,0.100,7630.000,0.200,2067.000,0.300,1324.000,0.500,1311.000,1.000,499.000,5.000,0
"04/01/08","09:04:12",27316.000,"cc",28314.570,6.00,6,0.100,21226.000,0.200,3131.000,0.300,1308.000,0.500,1203.000,1.000,448.000,5.000,0
"04/01/08","09:04:18",43648.000,"cc",28350.375,6.00,6,0.100,36166.000,0.200,4607.000,0.300,1277.000,0.500,1161.000,1.000,437.000,5.000,0
"04/01/08","09:04:24",39211.000,"cc",28305.107,6.00,6,0.100,31518.000,0.200,4480.000,0.300,1419.000,0.500,1329.000,1.000,465.000,5.000,0
"04/01/08","09:04:30",141030.000,"cc",28318.934,6.00,6,0.100,123862.000,0.200,13842.000,0.300,1721.000,0.500,1182.000,1.000,423.000,5.000,0
"04/01/08","09:04:36",183138.000,"cc",28304.938,6.00,6,0.100,161822.000,0.200,17994.000,0.300,1772.000,0.500,1147.000,1.000,403.000,5.000,0
"04/01/08","09:04:42",185235.000,"cc",28265.029,6.00,6,0.100,163670.000,0.200,18176.000,0.300,1808.000,0.500,1174.000,1.000,407.000,5.000,0
"04/01/08","09:04:48",206412.000,"cc",28326.231,6.00,6,0.100,182292.000,0.200,20494.000,0.300,1969.000,0.500,1261.000,1.000,396.000,5.000,0
"04/01/08","09:04:54",153762.000,"cc",28360.482,6.00,6,0.100,134144.000,0.200,15653.000,0.300,2093.000,0.500,1401.000,1.000,471.000,5.000,0
"04/01/08","09:05:00",96281.000,"cc",28306.914,6.00,6,0.100,82992.000,0.200,9732.000,0.300,1641.000,0.500,1447.000,1.000,469.000,5.000,0
"04/01/08","09:05:06",106882.000,"cc",28261.268,6.00,6,0.100,91098.000,0.200,10805.000,0.300,2444.000,0.500,1858.000,1.000,677.000,5.000,0
"04/01/08","09:05:12",92568.000,"cc",28338.270,6.00,6,0.100,77819.000,0.200,9692.000,0.300,2354.000,0.500,1967.000,1.000,736.000,5.000,0
"04/01/08","09:05:18",96119.000,"cc",28371.094,6.00,6,0.100,80722.000,0.200,10059.000,0.300,2454.000,0.500,2098.000,1.000,786.000,5.000,0
"04/01/08","09:05:24",93894.000,"cc",28342.418,6.00,6,0.100,77865.000,0.200,10034.000,0.300,2725.000,0.500,2349.000,1.000,921.000,5.000,0
"04/01/08","09:05:30",121491.000,"cc",28275.621,6.00,6,0.100,102279.000,0.200,12957.000,0.300,2828.000,0.500,2483.000,1.000,944.000,5.000,0
"04/01/08","09:05:36",105931.000,"cc",28308.617,6.00,6,0.100,89989.000,0.200,10972.000,0.300,2286.000,0.500,1929.000,1.000,755.000,5.000,0
"04/01/08","09:05:42",104565.000,"cc",28330.123,6.00,6,0.100,90229.000,0.200,10339.000,0.300,1896.000,0.500,1530.000,1.000,571.000,5.000,0
"04/01/08","09:05:48",71851.000,"cc",28257.748,6.00,6,0.100,60650.000,0.200,7370.000,0.300,1716.000,0.500,1577.000,1.000,538.000,5.000,0
"04/01/08","09:05:54",84266.000,"cc",28243.369,6.00,6,0.100,71478.000,0.200,8611.000,0.300,1927.000,0.500,1649.000,1.000,601.000,5.000,0
"04/01/08","09:06:00",84770.000,"cc",28347.098,6.00,6,0.100,73065.000,0.200,8384.000,0.300,1565.000,0.500,1271.000,1.000,485.000,5.000,0
"04/01/08","09:06:06",81366.000,"cc",28336.121,6.00,6,0.100,70280.000,0.200,7850.000,0.300,1537.000,0.500,1241.000,1.000,457.000,5.000,1.000
"04/01/08","09:06:12",112107.000,"cc",28352.885,6.00,6,0.100,97755.000,0.200,11143.000,0.300,1566.000,0.500,1227.000,1.000,416.000,5.000,0
"04/01/08","09:06:18",168747.000,"cc",28309.772,6.00,6,0.100,147887.000,0.200,17227.000,0.300,1816.000,0.500,1334.000,1.000,483.000,5.000,0
"04/01/08","09:06:24",217465.000,"cc",28347.568,6.00,6,0.100,190059.000,0.200,23190.000,0.300,2275.000,0.500,1455.000,1.000,486.000,5.000,0
"04/01/08","09:06:30",241590.000,"cc",28276.451,6.00,6,0.100,212170.000,0.200,25698.000,0.300,2081.000,0.500,1232.000,1.000,409.000,5.000,0
"04/01/08","09:06:36",265739.000,"cc",28368.854,6.00,6,0.100,218854.000,0.200,42349.000,0.300,2848.000,0.500,1284.000,1.000,404.000,5.000,0
"04/01/08","09:06:42",244409.000,"cc",28294.147,6.00,6,0.100,214805.000,0.200,26110.000,0.300,2004.000,0.500,1136.000,1.000,354.000,5.000,0
"04/01/08","09:06:48",178362.000,"cc",28239.031,6.00,6,0.100,156913.000,0.200,18162.000,0.300,1752.000,0.500,1117.000,1.000,418.000,5.000,0
"04/01/08","09:06:54",50473.000,"cc",28329.760,6.00,6,0.100,42968.000,0.200,4921.000,0.300,1183.000,0.500,1047.000,1.000,354.000,5.000,0
"04/01/08","09:07:00",47897.000,"cc",28371.826,6.00,6,0.100,40606.000,0.200,4750.000,0.300,1108.000,0.500,1068.000,1.000,365.000,5.000,0
"04/01/08","09:07:06",58386.000,"cc",28317.041,6.00,6,0.100,49890.000,0.200,5760.000,0.300,1270.000,0.500,1098.000,1.000,368.000,5.000,0
"04/01/08","09:07:12",52918.000,"cc",28305.045,6.00,6,0.100,44120.000,0.200,5498.000,0.300,1479.000,0.500,1338.000,1.000,483.000,5.000,0
"04/01/08","09:07:18",42921.000,"cc",28360.277,6.00,6,0.100,35204.000,0.200,4505.000,0.300,1412.000,0.500,1320.000,1.000,480.000,5.000,0
"04/01/08","09:07:24",45182.000,"cc",28337.838,6.00,6,0.100,36688.000,0.200,4963.000,0.300,1582.000,0.500,1433.000,1.000,516.000,5.000,0
"04/01/08","09:07:30",37965.000,"cc",28307.289,6.00,6,0.100,30106.000,0.200,4213.000,0.300,1605.000,0.500,1488.000,1.000,553.000,5.000,0
"04/01/08","09:07:36",38131.000,"cc",28277.311,6.00,6,0.100,30613.000,0.200,4265.000,0.300,1457.000,0.500,1309.000,1.000,487.000,5.000,0
"04/01/08","09:07:42",48501.000,"cc",28289.818,6.00,6,0.100,40287.000,0.200,5011.000,0.300,1374.000,0.500,1363.000,1.000,466.000,5.000,0
"04/01/08","09:07:48",22130.000,"cc",28326.502,6.00,6,0.100,15886.000,0.200,2868.000,0.300,1459.000,0.500,1374.000,1.000,543.000,5.000,0
"04/01/08","09:07:54",29839.000,"cc",28356.815,6.00,6,0.100,22613.000,0.200,3629.000,0.300,1601.000,0.500,1445.000,1.000,551.000,5.000,0
"04/01/08","09:08:00",39879.000,"cc",28321.885,6.00,6,0.100,32087.000,0.200,4403.000,0.300,1539.000,0.500,1370.000,1.000,480.000,5.000,0
"04/01/08","09:08:06",43795.000,"cc",28393.434,6.00,6,0.100,35660.000,0.200,4715.000,0.300,1513.000,0.500,1385.000,1.000,522.000,5.000,0
"04/01/08","09:08:12",51910.000,"cc",28292.293,6.00,6,0.100,42534.000,0.200,5743.000,0.300,1641.000,0.500,1478.000,1.000,514.000,5.000,0
"04/01/08","09:08:18",42836.000,"cc",28315.473,6.00,6,0.100,34726.000,0.200,4731.000,0.300,1506.000,0.500,1382.000,1.000,491.000,5.000,0
"04/01/08","09:08:24",36256.000,"cc",28234.561,6.00,6,0.100,29145.000,0.200,4080.000,0.300,1267.000,0.500,1311.000,1.000,453.000,5.000,0
"04/01/08","09:08:30",37075.000,"cc",28304.479,6.00,6,0.100,29867.000,0.200,4161.000,0.300,1364.000,0.500,1248.000,1.000,435.000,5.000,0
"04/01/08","09:08:36",51686.000,"cc",28287.275,6.00,6,0.100,43004.000,0.200,5493.000,0.300,1487.000,0.500,1246.000,1.000,456.000,5.000,0
"04/01/08","09:08:42",48067.000,"cc",28338.416,6.00,6,0.100,38904.000,0.200,5380.000,0.300,1768.000,0.500,1498.000,1.000,517.000,5.000,0
"04/01/08","09:08:48",35831.000,"cc",28343.465,6.00,6,0.100,27015.000,0.200,4696.000,0.300,1922.000,0.500,1657.000,1.000,541.000,5.000,0
"04/01/08","09:08:54",53907.000,"cc",28253.035,6.00,6,0.100,43750.000,0.200,6073.000,0.300,1922.000,0.500,1600.000,1.000,562.000,5.000,0
"04/01/08","09:09:00",51495.000,"cc",28326.900,6.00,6,0.100,42347.000,0.200,5724.000,0.300,1560.000,0.500,1401.000,1.000,463.000,5.000,0
"04/01/08","09:09:06",29085.000,"cc",28291.410,6.00,6,0.100,22508.000,0.200,3472.000,0.300,1336.000,0.500,1304.000,1.000,465.000,5.000,0
"04/01/08","09:09:12",29152.000,"cc",28349.857,6.00,6,0.100,22953.000,0.200,3302.000,0.300,1217.000,0.500,1244.000,1.000,436.000,5.000,0
"04/01/08","09:09:18",26812.000,"cc",28357.547,6.00,6,0.100,20981.000,0.200,3140.000,0.300,1169.000,0.500,1150.000,1.000,372.000,5.000,0
"04/01/08","09:09:24",29029.000,"cc",28307.074,6.00,6,0.100,23074.000,0.200,3215.000,0.300,1167.000,0.500,1164.000,1.000,409.000,5.000,0
"04/01/08","09:09:30",24389.000,"cc",28325.576,6.00,6,0.100,18843.000,0.200,2804.000,0.300,1163.000,0.500,1169.000,1.000,410.000,5.000,0
"04/01/08","09:09:36",25404.000,"cc",28313.100,6.00,6,0.100,19921.000,0.200,2922.000,0.300,1106.000,0.500,1052.000,1.000,403.000,5.000,0
"04/01/08","09:09:42",11103.000,"cc",28298.238,6.00,6,0.100,7569.000,0.200,1430.000,0.300,865.000,0.500,918.000,1.000,321.000,5.000,0
"04/01/08","09:09:48",22795.000,"cc",28329.619,6.00,6,0.100,16964.000,0.200,2819.000,0.300,1319.000,0.500,1246.000,1.000,447.000,5.000,0
"04/01/08","09:09:54",20829.000,"cc",28344.629,6.00,6,0.100,15422.000,0.200,2610.000,0.300,1208.000,0.500,1145.000,1.000,444.000,5.000,0
"04/01/08","09:10:00",17598.000,"cc",28308.416,6.00,6,0.100,12713.000,0.200,2292.000,0.300,1138.000,0.500,1099.000,1.000,356.000,5.000,0
"04/01/08","09:10:06",20486.000,"cc",28271.365,6.00,6,0.100,14741.000,0.200,2582.000,0.300,1331.000,0.500,1342.000,1.000,490.000,5.000,0
"04/01/08","09:10:12",18252.000,"cc",28365.264,6.00,6,0.100,12248.000,0.200,2648.000,0.300,1444.000,0.500,1398.000,1.000,514.000,5.000,0
"04/01/08","09:10:18",20782.000,"cc",28256.273,6.00,6,0.100,14989.000,0.200,2668.000,0.300,1366.000,0.500,1302.000,1.000,457.000,5.000,0
"04/01/08","09:10:24",15101.000,"cc",28320.172,6.00,6,0.100,10547.000,0.200,1998.000,0.300,1096.000,0.500,1090.000,1.000,370.000,5.000,0
"04/01/08","09:10:30",15484.000,"cc",28348.871,6.00,6,0.100,10810.000,0.200,2011.000,0.300,1162.000,0.500,1122.000,1.000,379.000,5.000,0
"04/01/08","09:10:36",20912.000,"cc",28295.662,6.00,6,0.100,15144.000,0.200,2747.000,0.300,1312.000,0.500,1244.000,1.000,465.000,5.000,0
"04/01/08","09:10:42",17362.000,"cc",28296.004,6.00,6,0.100,12123.000,0.200,2364.000,0.300,1223.000,0.500,1236.000,1.000,416.000,5.000,0
"04/01/08","09:10:48",19898.000,"cc",28299.565,6.00,6,0.100,13647.000,0.200,2763.000,0.300,1491.000,0.500,1444.000,1.000,553.000,5.000,0
"04/01/08","09:10:54",20659.000,"cc",28297.928,6.00,6,0.100,13785.000,0.200,3009.000,0.300,1656.000,0.500,1620.000,1.000,589.000,5.000,0
"04/01/08","09:11:00",19979.000,"cc",28367.184,6.00,6,0.100,13687.000,0.200,2795.000,0.300,1525.000,0.500,1444.000,1.000,528.000,5.000,0
"04/01/08","09:11:06",74701.000,"cc",28293.289,6.00,6,0.100,63052.000,0.200,7850.000,0.300,1744.000,0.500,1517.000,1.000,538.000,5.000,0
"04/01/08","09:11:12",134429.000,"cc",28317.637,6.00,6,0.100,117330.000,0.200,13270.000,0.300,1887.000,0.500,1415.000,1.000,527.000,5.000,0
"04/01/08","09:11:18",78381.000,"cc",28280.604,6.00,6,0.100,67946.000,0.200,7493.000,0.300,1339.000,0.500,1191.000,1.000,412.000,5.000,0
"04/01/08","09:11:24",38532.000,"cc",28295.678,6.00,6,0.100,31919.000,0.200,3822.000,0.300,1192.000,0.500,1182.000,1.000,417.000,5.000,0
"04/01/08","09:11:30",71778.000,"cc",28325.557,6.00,6,0.100,61903.000,0.200,6832.000,0.300,1354.000,0.500,1251.000,1.000,438.000,5.000,0
"04/01/08","09:11:36",53467.000,"cc",28391.768,6.00,6,0.100,45414.000,0.200,5167.000,0.300,1291.000,0.500,1162.000,1.000,433.000,5.000,0
"04/01/08","09:11:42",44929.000,"cc",28328.516,6.00,6,0.100,37657.000,0.200,4508.000,0.300,1197.000,0.500,1136.000,1.000,431.000,5.000,0
"04/01/08","09:11:48",38055.000,"cc",28250.898,6.00,6,0.100,31276.000,0.200,3957.000,0.300,1219.000,0.500,1191.000,1.000,412.000,5.000,0
"04/01/08","09:11:54",17639.000,"cc",28294.188,6.00,6,0.100,13001.000,0.200,2207.000,0.300,1032.000,0.500,1023.000,1.000,376.000,5.000,0
"04/01/08","09:12:00",15667.000,"cc",28359.022,6.00,6,0.100,11051.000,0.200,1987.000,0.300,1144.000,0.500,1103.000,1.000,382.000,5.000,0
"04/01/08","09:12:06",21621.000,"cc",28331.619,6.00,6,0.100,16686.000,0.200,2439.000,0.300,1083.000,0.500,1058.000,1.000,355.000,5.000,0
"04/01/08","09:12:12",17319.000,"cc",28288.461,6.00,6,0.100,12771.000,0.200,2172.000,0.300,1042.000,0.500,984.000,1.000,350.000,5.000,0
"04/01/08","09:12:18",18621.000,"cc",28301.963,6.00,6,0.100,13306.000,0.200,2393.000,0.300,1285.000,0.500,1222.000,1.000,415.000,5.000,0
"04/01/08","09:12:24",17515.000,"cc",28318.688,6.00,6,0.100,12371.000,0.200,2234.000,0.300,1274.000,0.500,1208.000,1.000,428.000,5.000,0
"04/01/08","09:12:30",13396.000,"cc",28333.256,6.00,6,0.100,9251.000,0.200,1758.000,0.300,1030.000,0.500,1008.000,1.000,349.000,5.000,0
"04/01/08","09:12:36",14178.000,"cc",28285.211,6.00,6,0.100,10232.000,0.200,1739.000,0.300,925.000,0.500,941.000,1.000,341.000,5.000,0
"04/01/08","09:12:42",11807.000,"cc",28331.719,6.00,6,0.100,8115.000,0.200,1553.000,0.300,908.000,0.500,907.000,1.000,324.000,5.000,0
"04/01/08","09:12:48",20577.000,"cc",28369.979,6.00,6,0.100,15892.000,0.200,2417.000,0.300,950.000,0.500,954.000,1.000,364.000,5.000,0
"04/01/08","09:12:54",55877.000,"cc",28331.078,6.00,6,0.100,47057.000,0.200,5824.000,0.300,1366.000,0.500,1163.000,1.000,467.000,5.000,0
"04/01/08","09:13:00",48766.000,"cc",28288.441,6.00,6,0.100,41111.000,0.200,4968.000,0.300,1184.000,0.500,1073.000,1.000,430.000,5.000,0
"04/01/08","09:13:06",27144.000,"cc",28328.481,6.00,6,0.100,21504.000,0.200,3024.000,0.300,1112.000,0.500,1106.000,1.000,398.000,5.000,0
"04/01/08","09:13:12",23981.000,"cc",28325.252,6.00,6,0.100,17606.000,0.200,3053.000,0.300,1434.000,0.500,1394.000,1.000,494.000,5.000,0
"04/01/08","09:13:18",27476.000,"cc",28307.311,6.00,6,0.100,21261.000,0.200,3179.000,0.300,1326.000,0.500,1279.000,1.000,431.000,5.000,0
"04/01/08","09:13:24",22896.000,"cc",28293.402,6.00,6,0.100,17110.000,0.200,2751.000,0.300,1281.000,0.500,1291.000,1.000,463.000,5.000,0
"04/01/08","09:13:30",67241.000,"cc",28320.150,6.00,6,0.100,56555.000,0.200,6849.000,0.300,1744.000,0.500,1552.000,1.000,541.000,5.000,0
"04/01/08","09:13:36",27574.000,"cc",28358.647,6.00,6,0.100,21380.000,0.200,3205.000,0.300,1306.000,0.500,1220.000,1.000,463.000,5.000,0
"04/01/08","09:13:42",91946.000,"cc",28352.826,6.00,6,0.100,79110.000,0.200,9280.000,0.300,1666.000,0.500,1365.000,1.000,525.000,5.000,0
"04/01/08","09:13:48",77821.000,"cc",28308.500,6.00,6,0.100,66844.000,0.200,7602.000,0.300,1551.000,0.500,1340.000,1.000,484.000,5.000,0
"04/01/08","09:13:54",40579.000,"cc",28378.672,6.00,6,0.100,33784.000,0.200,4095.000,0.300,1248.000,0.500,1068.000,1.000,384.000,5.000,0
"04/01/08","09:14:00",42255.000,"cc",28231.510,6.00,6,0.100,35205.000,0.200,4358.000,0.300,1179.000,0.500,1103.000,1.000,410.000,5.000,0
"04/01/08","09:14:06",55737.000,"cc",28285.434,6.00,6,0.100,47144.000,0.200,5692.000,0.300,1362.000,0.500,1161.000,1.000,378.000,5.000,0
"04/01/08","09:14:12",55420.000,"cc",28281.606,6.00,6,0.100,46686.000,0.200,5684.000,0.300,1426.000,0.500,1176.000,1.000,448.000,5.000,0
"04/01/08","09:14:18",27450.000,"cc",28316.029,6.00,6,0.100,21606.000,0.200,3166.000,0.300,1213.000,0.500,1094.000,1.000,371.000,5.000,0
"04/01/08","09:14:24",37970.000,"cc",28320.973,6.00,6,0.100,30457.000,0.200,4284.000,0.300,1445.000,0.500,1298.000,1.000,486.000,5.000,0
"04/01/08","09:14:30",60927.000,"cc",28307.342,6.00,6,0.100,50760.000,0.200,6407.000,0.300,1705.000,0.500,1485.000,1.000,570.000,5.000,0
"04/01/08","09:14:36",68472.000,"cc",28308.344,6.00,6,0.100,56454.000,0.200,7518.000,0.300,2112.000,0.500,1747.000,1.000,641.000,5.000,0
"04/01/08","09:14:42",68993.000,"cc",28354.168,6.00,6,0.100,56853.000,0.200,7572.000,0.300,2121.000,0.500,1738.000,1.000,709.000,5.000,0
"04/01/08","09:14:48",45808.000,"cc",28390.777,6.00,6,0.100,36591.000,0.200,5267.000,0.300,1759.000,0.500,1638.000,1.000,553.000,5.000,0
"04/01/08","09:14:54",53966.000,"cc",28193.168,6.00,6,0.100,44010.000,0.200,5991.000,0.300,1856.000,0.500,1539.000,1.000,570.000,5.000,0
"04/01/08","09:15:00",43270.000,"cc",28421.637,6.00,6,0.100,34896.000,0.200,4900.000,0.300,1555.000,0.500,1377.000,1.000,542.000,5.000,0
"04/01/08","09:15:06",51690.000,"cc",28209.457,6.00,6,0.100,42277.000,0.200,5670.000,0.300,1701.000,0.500,1477.000,1.000,565.000,5.000,0
"04/01/08","09:15:12",38610.000,"cc",28321.342,6.00,6,0.100,29965.000,0.200,4682.000,0.300,1817.000,0.500,1558.000,1.000,588.000,5.000,0
"04/01/08","09:15:18",71574.000,"cc",28347.152,6.00,6,0.100,58493.000,0.200,8024.000,0.300,2355.000,0.500,1978.000,1.000,724.000,5.000,0
"04/01/08","09:15:24",79354.000,"cc",28318.232,6.00,6,0.100,65069.000,0.200,9033.000,0.300,2463.000,0.500,1998.000,1.000,791.000,5.000,0
"04/01/08","09:15:30",61573.000,"cc",28279.320,6.00,6,0.100,50571.000,0.200,6828.000,0.300,1918.000,0.500,1700.000,1.000,556.000,5.000,0
"04/01/08","09:15:36",20543.000,"cc",28289.232,6.00,6,0.100,15189.000,0.200,2622.000,0.300,1205.000,0.500,1144.000,1.000,383.000,5.000,0
"04/01/08","09:15:42",33332.000,"cc",28282.070,6.00,6,0.100,26287.000,0.200,3951.000,0.300,1385.000,0.500,1280.000,1.000,429.000,5.000,0
"04/01/08","09:15:48",27253.000,"cc",28390.414,6.00,6,0.100,20852.000,0.200,3310.000,0.300,1393.000,0.500,1248.000,1.000,450.000,5.000,0
"04/01/08","09:15:54",26076.000,"cc",28359.262,6.00,6,0.100,19420.000,0.200,3276.000,0.300,1452.000,0.500,1400.000,1.000,528.000,5.000,0
"04/01/08","09:16:00",27350.000,"cc",28288.232,6.00,6,0.100,20586.000,0.200,3402.000,0.300,1467.000,0.500,1415.000,1.000,480.000,5.000,0
"04/01/08","09:16:06",19650.000,"cc",28301.566,6.00,6,0.100,14060.000,0.200,2573.000,0.300,1280.000,0.500,1275.000,1.000,462.000,5.000,0
"04/01/08","09:16:12",16673.000,"cc",28314.186,6.00,6,0.100,11228.000,0.200,2334.000,0.300,1291.000,0.500,1354.000,1.000,466.000,5.000,0
"04/01/08","09:16:18",15442.000,"cc",28307.666,6.00,6,0.100,10105.000,0.200,2274.000,0.300,1340.000,0.500,1272.000,1.000,451.000,5.000,0
"04/01/08","09:16:24",16603.000,"cc",28371.211,6.00,6,0.100,11363.000,0.200,2333.000,0.300,1279.000,0.500,1217.000,1.000,411.000,5.000,0